User: anonymous   Login
Location: Marseilles
(40.7010°N, 83.3930°W)
Time: 14:57:42
(UTC-05:00)
Language:

Cosmos 1459 Rocket - Orbit

View from above orbital plane
View from above orbital plane
View from above satellite
View from above satellite

Ground track
Ground track

The orbit data is extracted from the following two-line orbital elements,

1 14059U 83042B   17059.76913919 +.00000066 +00000-0 +50122-4 0  9999
2 14059 082.9737 142.4159 0042096 209.5300 150.3481 13.78576630700558
Epoch (UTC): 28 February 2017 18:27:33
Eccentricity: 0.0042096
inclination: 82.9737°
perigee height: 938 km
apogee height: 1000 km
right ascension of ascending node: 142.4159°
argument of perigee: 209.5300°
revolutions per day: 13.78576630
mean anomaly at epoch: 150.3481°
orbit number at epoch: 70055

The dashed part of the orbit path shows where the satellite is in the earth's shadow,  

DLR